Location: Christian Reformed Church
(43.0975°N, 93.8113°W)
Time: 20:09:05
(UTC+00:00)

Landsat 7 - Pass Details

Date: 13 December 2025
Orbit: 680 x 682 km, 97.9° (Epoch: 12 January)

Event Time Altitude Azimuth Distance (km) Brightness Sun altitude
Rises 12:45:15 0° 13° (NNE) 3,052 7.0 -9.5°
Reaches altitude 10° 12:47:30 10° 13° (NNE) 2,132 6.2 -9.1°
Maximum altitude 12:52:11 87° 106° (ESE) 688 3.8 -8.3°
Drops below altitude 10° 12:56:49 10° 193° (SSW) 2,114 6.5 -7.6°
Sets 12:59:02 0° 194° (SSW) 3,025 7.3 -7.2°
